This demonstration page uses our WeatherBlox Daily Observations layout. Learn more.

Left ArrowRight Arrow

34.16533, -84.80231

Hourly Observations for April 12, 2020

Temp ( °F °C ) Dew Point ( °F °C ) Humidity (%) Winds ( mph kmh ) Pressure ( in mb ) Visibility ( mi km ) Precip ( " mm )
12:53 am 00:53 Clear 48 8.9 40 4.4 74 74 SE 3 6 29.98 1015 10 16 0.00 0.00
1:53 am 01:53 Clear 48 8.9 40 4.4 74 74 SE 6 9 29.96 1015 10 16 0.00 0.00
2:53 am 02:53 Clear 51 10.6 39 3.9 64 64 Calm 29.97 1015 10 16 0.00 0.00
3:53 am 03:53 Clear 54 12.2 39 3.9 57 57 E 3 6 29.95 1014 10 16 0.00 0.00
4:53 am 04:53 Clear 52 11.1 41 5 66 66 Calm 29.97 1015 8 13 0.00 0.00
5:53 am 05:53 Clear 49 9.4 42 5.6 77 77 Calm 29.98 1015 10 16 0.00 0.00
6:53 am 06:53 Mostly Clear 51 10.6 43 6.1 74 74 ENE 5 7 30.01 1016 10 16 0.00 0.00
7:53 am 07:53 Mostly Cloudy 54 12.2 41 5 62 62 E 7 11 30.00 1016 10 16 0.00 0.00
8:53 am 08:53 Mostly Cloudy 55 12.8 42 5.6 62 62 VRB 5 7 29.98 1015 10 16 0.00 0.00
9:53 am 09:53 Mostly Cloudy 56 13.3 44 6.7 65 65 E 6 9 29.96 1015 10 16 0.00 0.00
10:53 am 10:53 Mostly Sunny 58 14.4 50 10 75 75 ESE 8 13 29.94 1014 10 16 0.02 0.51
11:53 am 11:53 Mostly Cloudy 63 17.2 53 11.7 70 70 E 7 11 29.92 1013 10 16 0.01 0.25
12:28 pm 12:28 Mostly Cloudy with Thunderstorms 63 17.2 56 13.3 78 78 VRB 6 9 29.92 1013 10 16 0.03 0.76
12:40 pm 12:40 Cloudy 64 17.8 56 13.3 75 75 ESE 10 17 29.93 1013 10 16 0.03 0.76
12:53 pm 12:53 Cloudy 64 17.8 56 13.3 75 75 ESE 9 15 29.90 1013 10 16 0.03 0.76
1:18 pm 13:18 Mostly Cloudy with Nearby Thunderstorms 66 18.9 57 13.9 73 73 E 8 13 29.88 1012 10 16 0.00 0.00
1:33 pm 13:33 Cloudy with Thunderstorms 64 17.8 58 14.4 81 81 ESE 9 15 29.89 1012 6 10 0.03 0.76
1:42 pm 13:42 Cloudy 63 17.2 59 15 87 87 ESE 7 11 29.88 1012 10 16 0.03 0.76
1:53 pm 13:53 Cloudy 63 17.2 59 15 87 87 VRB 6 9 29.87 1011 10 16 0.03 0.76
2:14 pm 14:14 Cloudy with Nearby Thunderstorms 63 17.2 59 15 87 87 SE 7 11 29.93 1014 7 11 0.00 0.00
2:38 pm 14:38 Cloudy with Rain 62 16.7 59 15 90 90 ESE 8 13 29.88 1012 4 6 0.07 1.78
2:53 pm 14:53 Cloudy with Light Rain 62 16.7 59 15 90 90 SE 9 15 29.88 1012 4 6 0.09 2.29
2:59 pm 14:59 Cloudy with Nearby Thunderstorms 62 16.7 59 15 90 90 ESE 10 17 29.86 1011 4 6 0.01 0.25
3:17 pm 15:17 Cloudy with Light Rain 62 16.7 59 15 90 90 ESE 10 17 29.84 1011 7 11 0.03 0.76
3:24 pm 15:24 Cloudy 62 16.7 59 15 90 90 ESE 9 15 29.83 1010 7 11 0.03 0.76
3:53 pm 15:53 Cloudy 63 17.2 60 15.6 90 90 ESE 8 13 29.80 1009 7 11 0.03 0.76
4:53 pm 16:53 Cloudy with Light Rain 65 18.3 62 16.7 90 90 SE 7 11 29.75 1007 9 14 0.02 0.51
5:30 pm 17:30 Cloudy 67 19.4 64 17.8 91 91 SE 9 15 29.71 1006 7 11 0.00 0.00
5:53 pm 17:53 Cloudy 68 20 64 17.8 87 87 VRB 7 11 29.70 1006 7 11 0.00 0.00
6:34 pm 18:34 Cloudy with Nearby Thunderstorms 69 20.6 65 18.3 87 87 SE 8 13 29.68 1005 6 10 0.01 0.25
6:44 pm 18:44 Cloudy with Nearby Thunderstorms 69 20.6 66 18.9 90 90 SE 8 13 29.67 1005 6 10 0.01 0.25
6:53 pm 18:53 Cloudy with Light Rain 70 21.1 66 18.9 87 87 SE 9 15 29.66 1005 6 10 0.02 0.51
7:08 pm 19:08 Mostly Cloudy with Nearby Thunderstorms 70 21.1 66 18.9 87 87 SE 15 24 29.64 1004 7 11 0.00 0.00
7:23 pm 19:23 Mostly Cloudy 71 21.7 66 18.9 84 84 SSE 9 15 29.64 1004 8 13 0.00 0.00
7:53 pm 19:53 Cloudy 72 22.2 67 19.4 84 84 S 8 13 29.64 1004 9 14 0.00 0.00
8:02 pm 20:02 Cloudy with Nearby Thunderstorms 73 22.8 67 19.4 81 81 SE 5 7 29.65 1004 9 14 0.00 0.00
8:08 pm 20:08 Cloudy with Thunderstorms 73 22.8 67 19.4 81 81 SSE 10 17 29.65 1004 9 14 0.00 0.00
8:16 pm 20:16 Cloudy with Thunderstorms 73 22.8 67 19.4 81 81 SSE 12 19 29.65 1004 9 14 0.00 0.00
8:36 pm 20:36 Cloudy with Nearby Thunderstorms 73 22.8 67 19.4 81 81 S 9 15 29.68 1005 8 13 0.01 0.25
8:51 pm 20:51 Cloudy with Light Rain 73 23 68 20 83 83 SSE 12 19 29.64 1004 7 11 0.02 0.51
8:53 pm 20:53 Cloudy with Light Rain 73 22.8 68 20 84 84 SSE 13 20 29.63 1004 8 13 0.02 0.51
9:53 pm 21:53 Cloudy 73 22.8 68 20 84 84 S 7 11 29.63 1003 9 14 0.01 0.25
10:35 pm 22:35 Cloudy with Light Rain 73 22.8 68 20 84 84 SSE 7 11 29.63 1003 7 11 0.01 0.25
10:53 pm 22:53 Cloudy with Light Rain 73 22.8 68 20 84 84 VRB 5 7 29.64 1004 7 11 0.02 0.51
11:04 pm 23:04 Cloudy with Nearby Thunderstorms 72 22.2 68 20 87 87 Calm 29.65 1004 6 10 0.01 0.25
11:30 pm 23:30 Cloudy with Light Rain 72 22.2 68 20 87 87 SE 6 9 29.62 1003 6 10 0.03 0.76
11:53 pm 23:53 Cloudy with Rain 72 22.2 67 19.4 84 84 SSE 7 11 29.60 1003 5 8 0.06 1.52

Powered by AerisWeather